When you browse on this site, cookies collect data to enhance your experience and personalize the content and advertising you see.
Visit our Privacy Policy to learn more. By continuing to use the site, you agree to this use of cookies and data.
  • In Hungary
  • List of Countries
  • For 7 days
  • Water Temperature
  • Weather Map
  • News
  • Weather Widgets
  • user-avatar
    Login

    Hourly Weather Arcabuco

    Today, 30 March, Monday

    Time Temperature Precipitation Wind Pressure Humidity
    00:00 +11°C° 0 mm 1 mps 543 mmHg 94%
    01:00 +11°C° 0 mm 1 mps 543 mmHg 94%
    02:00 +11°C° 0 mm 1 mps 543 mmHg 95%
    03:00 +10°C° 0 mm 1 mps 543 mmHg 95%
    04:00 +10°C° 0 mm 1 mps 542 mmHg 96%
    05:00 +10°C° 0 mm 1 mps 543 mmHg 94%
    06:00 +11°C° 0 mm 1 mps 543 mmHg 93%
    07:00 +11°C° 0 mm 1 mps 544 mmHg 92%
    08:00 +13°C° 0.1 mm 1 mps 545 mmHg 87%
    09:00 +14°C° 0.1 mm 1 mps 546 mmHg 82%
    10:00 +15°C° 0.1 mm 0 mps 547 mmHg 76%
    11:00 +18°C° 1.1 mm 1 mps 547 mmHg 76%
    12:00 +18°C° 1.1 mm 1 mps 546 mmHg 75%
    13:00 +19°C° 1.1 mm 1 mps 546 mmHg 74%
    14:00 +18°C° 1.8 mm 1 mps 545 mmHg 77%
    15:00 +18°C° 1.8 mm 1 mps 545 mmHg 80%
    16:00 +16°C° 1.8 mm 1 mps 544 mmHg 83%
    17:00 +15°C° 1.5 mm 1 mps 544 mmHg 87%
    18:00 +14°C° 1.5 mm 1 mps 543 mmHg 92%
    19:00 +12°C° 1.5 mm 0 mps 543 mmHg 96%
    20:00 +11°C° 0.7 mm 0 mps 543 mmHg 96%
    21:00 +11°C° 0.7 mm 0 mps 543 mmHg 97%
    22:00 +10°C° 0.7 mm 0 mps 543 mmHg 97%
    23:00 +11°C° 0.1 mm 1 mps 543 mmHg 97%

    Tomorrow, 31 March, Tuesday

    Time Temperature Precipitation Wind Pressure Humidity
    00:00 +11°C° 0.1 mm 1 mps 542 mmHg 96%
    01:00 +10°C° 0.1 mm 1 mps 542 mmHg 96%
    02:00 +10°C° 0 mm 1 mps 542 mmHg 96%
    03:00 +10°C° 0 mm 1 mps 542 mmHg 95%
    04:00 +10°C° 0 mm 1 mps 542 mmHg 95%
    05:00 +11°C° 0 mm 1 mps 542 mmHg 94%
    06:00 +11°C° 0 mm 1 mps 543 mmHg 93%
    07:00 +12°C° 0 mm 1 mps 543 mmHg 92%
    08:00 +14°C° 0.2 mm 1 mps 545 mmHg 85%
    09:00 +16°C° 0.2 mm 1 mps 546 mmHg 78%
    10:00 +19°C° 0.2 mm 1 mps 547 mmHg 71%
    11:00 +19°C° 1.2 mm 1 mps 547 mmHg 73%
    12:00 +19°C° 1.2 mm 1 mps 546 mmHg 75%
    13:00 +19°C° 1.2 mm 1 mps 545 mmHg 76%
    14:00 +19°C° 1.8 mm 1 mps 545 mmHg 79%
    15:00 +18°C° 1.8 mm 1 mps 544 mmHg 82%
    16:00 +16°C° 1.8 mm 1 mps 543 mmHg 85%
    17:00 +15°C° 1.8 mm 1 mps 543 mmHg 88%
    18:00 +14°C° 1.8 mm 1 mps 543 mmHg 92%
    19:00 +12°C° 1.8 mm 0 mps 542 mmHg 95%
    20:00 +12°C° 1.5 mm 0 mps 543 mmHg 96%
    21:00 +11°C° 1.5 mm 0 mps 543 mmHg 96%
    22:00 +11°C° 1.5 mm 0 mps 543 mmHg 96%
    23:00 +11°C° 2 mm 0 mps 543 mmHg 96%

    Day after tomorrow, 1 April, Wednesday

    Time Temperature Precipitation Wind Pressure Humidity
    00:00 +11°C° 2 mm 0 mps 543 mmHg 96%
    01:00 +11°C° 2 mm 0 mps 542 mmHg 96%
    02:00 +11°C° 0.7 mm 0 mps 542 mmHg 96%
    03:00 +10°C° 0.7 mm 0 mps 542 mmHg 96%
    04:00 +10°C° 0.7 mm 0 mps 542 mmHg 97%
    05:00 +11°C° 0.1 mm 0 mps 542 mmHg 96%
    06:00 +11°C° 0.1 mm 0 mps 543 mmHg 94%
    07:00 +11°C° 0.1 mm 0 mps 543 mmHg 93%
    08:00 +13°C° 0.6 mm 0 mps 545 mmHg 88%
    09:00 +15°C° 0.6 mm 0 mps 546 mmHg 83%
    10:00 +18°C° 0.6 mm 1 mps 547 mmHg 79%
    11:00 +18°C° 1.8 mm 1 mps 546 mmHg 79%
    12:00 +19°C° 1.8 mm 1 mps 546 mmHg 80%
    13:00 +19°C° 1.8 mm 1 mps 545 mmHg 80%
    14:00 +18°C° 2.4 mm 1 mps 545 mmHg 83%
    15:00 +16°C° 2.4 mm 1 mps 544 mmHg 85%
    16:00 +16°C° 2.4 mm 1 mps 543 mmHg 88%
    17:00 +15°C° 1.7 mm 1 mps 543 mmHg 91%
    18:00 +13°C° 1.7 mm 0 mps 543 mmHg 93%
    19:00 +12°C° 1.7 mm 0 mps 543 mmHg 96%
    20:00 +12°C° 1.2 mm 0 mps 543 mmHg 96%
    21:00 +12°C° 1.2 mm 0 mps 544 mmHg 96%
    22:00 +12°C° 1.2 mm 0 mps 544 mmHg 96%
    23:00 +11°C° 0.7 mm 0 mps 544 mmHg 96%

    2 April, Thursday

    Time Temperature Precipitation Wind Pressure Humidity
    00:00 +11°C° 0.7 mm 0 mps 543 mmHg 96%
    01:00 +11°C° 0.7 mm 0 mps 543 mmHg 97%
    02:00 +11°C° 0.5 mm 0 mps 543 mmHg 97%
    03:00 +11°C° 0.5 mm 0 mps 543 mmHg 97%
    04:00 +10°C° 0.5 mm 0 mps 543 mmHg 97%
    05:00 +11°C° 0.2 mm 0 mps 543 mmHg 96%
    06:00 +11°C° 0.2 mm 0 mps 544 mmHg 95%
    07:00 +11°C° 0.2 mm 0 mps 545 mmHg 95%
    08:00 +12°C° 0.5 mm 0 mps 545 mmHg 91%
    09:00 +14°C° 0.5 mm 0 mps 546 mmHg 87%
    10:00 +16°C° 0.5 mm 1 mps 547 mmHg 83%
    11:00 +18°C° 1.3 mm 1 mps 547 mmHg 82%
    12:00 +18°C° 1.3 mm 1 mps 547 mmHg 81%
    13:00 +19°C° 1.3 mm 1 mps 547 mmHg 80%
    14:00 +18°C° 1.8 mm 1 mps 546 mmHg 81%
    15:00 +18°C° 1.8 mm 1 mps 545 mmHg 83%
    16:00 +16°C° 1.8 mm 1 mps 544 mmHg 85%
    17:00 +15°C° 1.4 mm 1 mps 544 mmHg 88%
    18:00 +14°C° 1.4 mm 1 mps 544 mmHg 91%
    19:00 +11°C° 1.4 mm 0 mps 544 mmHg 94%
    20:00 +11°C° 0.8 mm 0 mps 544 mmHg 94%
    21:00 +11°C° 0.8 mm 0 mps 544 mmHg 94%
    22:00 +11°C° 0.8 mm 0 mps 545 mmHg 94%
    23:00 +11°C° 0.2 mm 0 mps 544 mmHg 94%

    3 April, Friday

    Time Temperature Precipitation Wind Pressure Humidity
    00:00 +11°C° 0.2 mm 1 mps 544 mmHg 93%
    01:00 +11°C° 0.2 mm 1 mps 544 mmHg 93%
    02:00 +11°C° 0 mm 1 mps 543 mmHg 93%
    03:00 +10°C° 0 mm 1 mps 543 mmHg 93%
    04:00 +10°C° 0 mm 1 mps 542 mmHg 92%
    05:00 +10°C° 0 mm 1 mps 543 mmHg 91%
    06:00 +11°C° 0 mm 1 mps 544 mmHg 90%
    07:00 +11°C° 0 mm 1 mps 544 mmHg 89%
    08:00 +14°C° 0 mm 1 mps 546 mmHg 80%
    09:00 +16°C° 0 mm 1 mps 547 mmHg 71%
    10:00 +20°C° 0 mm 1 mps 549 mmHg 62%
    11:00 +20°C° 0.6 mm 1 mps 548 mmHg 65%
    12:00 +20°C° 0.6 mm 1 mps 547 mmHg 69%
    13:00 +19°C° 0.6 mm 1 mps 547 mmHg 72%
    14:00 +19°C° 1.7 mm 1 mps 546 mmHg 76%
    15:00 +18°C° 1.7 mm 1 mps 545 mmHg 79%
    16:00 +18°C° 1.7 mm 1 mps 544 mmHg 83%
    17:00 +15°C° 1.5 mm 1 mps 544 mmHg 87%
    18:00 +14°C° 1.5 mm 1 mps 544 mmHg 91%
    19:00 +11°C° 1.5 mm 0 mps 543 mmHg 96%
    20:00 +11°C° 0.8 mm 0 mps 543 mmHg 96%
    21:00 +12°C° 0.8 mm 1 mps 544 mmHg 96%
    22:00 +12°C° 0.8 mm 1 mps 544 mmHg 96%
    23:00 +11°C° 0.1 mm 1 mps 544 mmHg 96%

    4 April, Saturday

    Time Temperature Precipitation Wind Pressure Humidity
    00:00 +11°C° 0.1 mm 1 mps 543 mmHg 96%
    01:00 +10°C° 0.1 mm 1 mps 543 mmHg 96%
    02:00 +10°C° 0 mm 1 mps 542 mmHg 95%
    03:00 +10°C° 0 mm 1 mps 542 mmHg 95%
    04:00 +10°C° 0 mm 1 mps 542 mmHg 95%
    05:00 +11°C° 0 mm 1 mps 543 mmHg 94%
    06:00 +11°C° 0 mm 1 mps 543 mmHg 93%
    07:00 +12°C° 0 mm 1 mps 544 mmHg 92%
    08:00 +13°C° 0 mm 1 mps 545 mmHg 87%
    09:00 +14°C° 0 mm 1 mps 546 mmHg 82%
    10:00 +16°C° 0 mm 1 mps 547 mmHg 77%
    11:00 +18°C° 1 mm 1 mps 547 mmHg 76%
    12:00 +19°C° 1 mm 1 mps 547 mmHg 75%
    13:00 +20°C° 1 mm 1 mps 547 mmHg 74%
    14:00 +19°C° 1.9 mm 1 mps 546 mmHg 78%
    15:00 +18°C° 1.9 mm 1 mps 545 mmHg 82%
    16:00 +15°C° 1.9 mm 1 mps 544 mmHg 86%
    17:00 +14°C° 0.9 mm 1 mps 543 mmHg 89%
    18:00 +13°C° 0.9 mm 1 mps 543 mmHg 91%
    19:00 +12°C° 0.9 mm 1 mps 543 mmHg 94%
    20:00 +12°C° 0.1 mm 1 mps 543 mmHg 94%
    21:00 +11°C° 0.1 mm 1 mps 543 mmHg 94%
    22:00 +11°C° 0.1 mm 1 mps 543 mmHg 95%
    23:00 +11°C° 0 mm 1 mps 543 mmHg 94%
    Show more